Alexandria, LA

1:26 AM CDT on August 19, 2017 (GMT -0500)
Alexandria International

Weather History for KAEX - February, 2011

Change the Weather History Date:

Monday, February 21, 2011

  Actual Average Record
Temperature  
Mean Temperature 72 °F 53 °F  
Max Temperature 80 °F 65 °F 83 °F (1986)
Min Temperature 63 °F 42 °F 28 °F (1964)
Degree Days  
Heating Degree Days 0 12  
Month to date heating degree days 373 296  
Since 1 July heating degree days 1747 1587  
Growing Degree Days 6 (Base 50)    
Moisture  
Dew Point 57 °F    
Average Humidity 56    
Maximum Humidity 87    
Minimum Humidity 25    
Precipitation  
Precipitation 0.00 in 0.17 in 3.97 in (1989)
Month to date precipitation 1.92 3.35  
Year to date precipitation 5.20 8.57  
Snow  
Snow 0.00 in - 0.00 in ()
Month to date snowfall 0.0  
Since 1 July snowfall 0.0  
Snow Depth 0.00 in    
Sea Level Pressure  
Sea Level Pressure 29.86 in    
Wind  
Wind Speed 11 mph (SSW)    
Max Wind Speed 26 mph    
Max Gust Speed 35 mph    
Visibility 10 miles    
Events      
T = Trace of Precipitation, MM = Missing Value Source: NWS Daily Summary

Daily Weather History Graph

Daily Weather History Graph

Search for Another Location

Airport or City:

Trip Planner

Search our weather history database for the weather conditions in past years. The results will help you decide how hot, cold, wet, or windy it might be!

Date:

Astronomy

Feb. 21, 2011 Rise Set
Actual Time 6:45 AM CST 6:02 PM CST
Civil Twilight 6:21 AM CST 6:26 PM CST
Nautical Twilight 5:53 AM CST 6:55 PM CST
Astronomical Twilight 5:24 AM CST 7:23 PM CST
Moon 10:13 PM CST (2/21) 8:36 AM CST (2/21)
Length of Visible Light 12h 05m
Length of Day
11h 16m
Waning Gibbous, 84% of the Moon is Illuminated
Feb 21
Waning Gibbous
Feb 24
Last Quarter
Mar 4
New
Mar 12
First Quarter
Mar 19
Full

Hourly Weather History & Observations

Time (CST) Temp. Heat Index Dew Point Humidity Pressure Visibility Wind Dir Wind Speed Gust Speed Precip Events Conditions
12:53 AM 64.9 °F - 59.0 °F 81% 29.88 in 10.0 mi South 8.1 mph - N/A   Overcast
1:53 AM 64.9 °F - 59.0 °F 81% 29.88 in 10.0 mi South 5.8 mph - N/A   Overcast
2:53 AM 64.9 °F - 59.0 °F 81% 29.86 in 10.0 mi South 8.1 mph - N/A   Mostly Cloudy
3:08 AM 64.4 °F - 59.0 °F 83% 29.84 in 10.0 mi South 6.9 mph - N/A   Overcast
3:43 AM 64.4 °F - 59.0 °F 83% 29.85 in 10.0 mi South 9.2 mph - N/A   Overcast
3:53 AM 64.9 °F - 59.0 °F 81% 29.85 in 10.0 mi South 6.9 mph - N/A   Overcast
4:11 AM 64.4 °F - 60.8 °F 88% 29.84 in 10.0 mi South 8.1 mph - N/A   Overcast
4:31 AM 64.4 °F - 60.8 °F 88% 29.82 in 10.0 mi South 9.2 mph - N/A   Overcast
4:42 AM 64.4 °F - 60.8 °F 88% 29.82 in 10.0 mi South 8.1 mph - N/A   Overcast
4:53 AM 64.9 °F - 60.1 °F 84% 29.83 in 10.0 mi South 10.4 mph - N/A   Overcast
5:53 AM 64.9 °F - 59.0 °F 81% 29.84 in 10.0 mi SSW 9.2 mph - N/A   Overcast
6:12 AM 64.4 °F - 59.0 °F 83% 29.83 in 10.0 mi South 9.2 mph - N/A   Mostly Cloudy
6:48 AM 64.4 °F - 60.8 °F 88% 29.83 in 10.0 mi South 8.1 mph - N/A   Overcast
6:53 AM 64.0 °F - 60.1 °F 87% 29.84 in 10.0 mi South 10.4 mph - N/A   Overcast
7:53 AM 64.9 °F - 59.0 °F 81% 29.85 in 10.0 mi South 12.7 mph 21.9 mph N/A   Mostly Cloudy
8:53 AM 68.0 °F - 60.1 °F 76% 29.88 in 10.0 mi SSW 13.8 mph - N/A   Overcast
9:37 AM 69.8 °F - 59.0 °F 68% 29.89 in 10.0 mi SSW 15.0 mph 20.7 mph N/A   Overcast
9:53 AM 72.0 °F - 60.1 °F 66% 29.91 in 10.0 mi SSW 18.4 mph 23.0 mph N/A   Overcast
10:53 AM 72.0 °F - 57.0 °F 59% 29.90 in 10.0 mi WSW 13.8 mph 20.7 mph N/A   Overcast
11:53 AM 75.0 °F - 55.0 °F 50% 29.88 in 10.0 mi SW 15.0 mph 23.0 mph N/A   Scattered Clouds
12:53 PM 77.0 °F - 55.0 °F 47% 29.87 in 10.0 mi SW 15.0 mph 23.0 mph N/A   Clear
1:53 PM 80.1 °F 80.1 °F 55.0 °F 42% 29.85 in 10.0 mi SSW 17.3 mph 23.0 mph N/A   Mostly Cloudy
2:53 PM 77.0 °F - 55.0 °F 47% 29.83 in 10.0 mi SSW 17.3 mph 23.0 mph N/A   Scattered Clouds
3:53 PM 78.1 °F - 54.0 °F 43% 29.83 in 10.0 mi SSW 13.8 mph - N/A   Scattered Clouds
4:53 PM 75.9 °F - 54.0 °F 46% 29.83 in 10.0 mi SSW 11.5 mph - N/A   Scattered Clouds
5:53 PM 73.0 °F - 57.0 °F 57% 29.84 in 10.0 mi SSW 8.1 mph - N/A   Clear
6:53 PM 69.1 °F - 57.9 °F 68% 29.86 in 10.0 mi South 6.9 mph - N/A   Clear
7:50 PM 32.0 °F - -0.4 °F 25% 29.94 in 10.0 mi Calm Calm - N/A   Clear
7:53 PM 69.1 °F - 59.0 °F 70% 29.88 in 10.0 mi South 8.1 mph - N/A   Mostly Cloudy
8:53 PM 66.9 °F - 60.1 °F 79% 29.90 in 10.0 mi SSW 6.9 mph - N/A   Clear
9:53 PM 66.0 °F - 61.0 °F 84% 29.91 in 10.0 mi SSW 6.9 mph - N/A   Clear
10:53 PM 66.0 °F - 62.1 °F 87% 29.92 in 10.0 mi SSW 6.9 mph - N/A   Clear
11:53 PM 64.0 °F - 61.0 °F 90% 29.92 in 8.0 mi SW 4.6 mph - N/A   Clear